Regional Weather Roundup
Issued by NWS Sioux Falls, SD

Home | Current Version | Previous Version | Text Only | Print | Product List | Glossary On
Versions: 1 2 3 4 5 6 7 8 9 10 11 12 13 14 15 16 17 18 19 20 21 22 23 24 25 26 27 28 29 30 31 32 33 34 35 36 37 38 39 40 41 42 43 44 45 46 47 48 49 50
000
ASUS43 KFSD 241502
RWRFSD

WEATHER ROUNDUP FOR SE SOUTH DAKOTA/SW MINNESOTA/NW IOWA
NATIONAL WEATHER SERVICE SIOUX FALLS SD
900 AM CST FRI FEB 24 2017

NOTE: "FAIR" INDICATES FEW OR NO CLOUDS BELOW 12,000 FEET WITH NO
SIGNIFICANT WEATHER AND OR OBSTRUCTIONS TO VISIBILITY.


SDZ038>040-050-052>070-241600-
SOUTHEAST SOUTH DAKOTA

CITY           SKY/WX    TMP DP  RH WIND       PRES   REMARKS
BROOKINGS      CLOUDY    19  11  70 N25       29.93R WCI   1
CHAMBERLAIN    CLOUDY    23  16  75 N18G25    30.07R WCI   9
HURON          CLOUDY    21  14  74 N21G26    30.05R WCI   5
MADISON        FAIR      19  16  86 NE30G37   29.93R WCI   0
MITCHELL       CLOUDY    23  15  71 N22G29    30.02R WCI   8
SIOUX FALLS    CLOUDY    21  15  78 N17G24    29.92R WCI   7
WINNER         FAIR      21  13  71 N14       30.07R WCI   8
YANKTON        CLOUDY    21  12  68 N23       29.94R WCI   5
$$

MNZ071-072-080-081-089-090-097-098-241600-
SOUTHWEST MINNESOTA

CITY           SKY/WX    TMP DP  RH WIND       PRES   REMARKS
FAIRMONT       LGT SNOW  21  19  93 N23       29.81R VSB 1   WCI   5
JACKSON        LGT SNOW  21  19  93 N20G28    29.83R VSB 3/4 WCI   6
LUVERNE        CLOUDY    21  14  73 N17G26    29.89R HAZE    WCI   7
MARSHALL       CLOUDY    21  14  74 N21G28    29.94R WCI   5
MONTEVIDEO     CLOUDY    21  12  68 NE24G31   29.98S WCI   4
PIPESTONE      CLOUDY    19  10  68 NE20G35   29.88R WCI   4
REDWOOD FALLS  CLOUDY    24  12  60 N16G25    29.92R WCI  11
TRACY          CLOUDY    23  17  76 N23G29    29.91S WCI   7
WINDOM         CLOUDY    21  16  79 N25G31    29.85R WCI   4
WORTHINGTON    CLOUDY    20  16  84 N25G33    29.85S FOG     WCI   2
$$

IAZ001>003-012>014-020>022-031-032-NEZ013-014-SDZ071-241600-
NORTHWEST IOWA

CITY           SKY/WX    TMP DP  RH WIND       PRES   REMARKS
CHEROKEE       CLOUDY    22  21  96 N17G30    29.82R WCI   8
DENISON        HVY RAIN  23  21  93 N22G33    29.72S VSB 1/2 WCI   8
ESTHERVILLE    FOG       20  19  96 N28G36    29.80R VSB 3/4 WCI   2
LE MARS        MIX PCPN  23  19  86 N20G30    29.87R WCI   8
ORANGE CITY      N/A     21  21 100 N21G29    29.84S WCI   6
SHELDON        SNOW      21  21 100 N28G33    29.83R VSB 1/2 WCI   3
SIOUX CITY     FOG       25  22  88 N26G35    29.85R VSB 1/2 WCI   9
SPENCER        FOG       22  19  89 N24G35    29.81R VSB 1/4 WCI   5
STORM LAKE     SNOW      21  19  93 N30       29.76R VSB 1/4 WCI   3
$$

ABBREVIATIONS USED IN REMARKS
   TC - TEMPERATURE IN CELSIUS
  WCI - WIND CHILL INDEX
   HX - HEAT INDEX
  VSB - VISIBILITY





USA.gov is the U.S. government's official web portal to all federal, state and local government web resources and services.